2024-029B

Last updated on Fri Feb 16 2024 00:02:04 GMT+0000 (Coordinated Universal Time)

1 58962U 24029B 24046.83604612 .03569560 12169-4 68933-3 0 9992 2 58962 51.6549 202.0172 0018808 76.7346 78.4464 16.30411281 82

Satellite not in orbit